Sierra Vista, AZ

6:40 PM MST on July 25, 2017 (GMT -0700)
Sierra Vista Municipal-Libby Army Air Field

Weather History for KFHU - August, 2014

Change the Weather History Date:

Saturday, August 9, 2014

  Actual Average Record
Temperature  
Mean Temperature 76 °F -  
Max Temperature 91 °F 86 °F 95 °F (2003)
Min Temperature 62 °F 68 °F 60 °F (1989)
Cooling Degree Days 12    
Growing Degree Days 26 (Base 50)    
Moisture  
Dew Point 58 °F    
Average Humidity 62    
Maximum Humidity 97    
Minimum Humidity 28    
Precipitation  
Precipitation 0.55 in - - ()
Sea Level Pressure  
Sea Level Pressure 30.03 in    
Wind  
Wind Speed 7 mph (West)    
Max Wind Speed 25 mph    
Max Gust Speed 32 mph    
Visibility 8 miles    
Events Rain , Thunderstorm    
Averages and records for this station are not official NWS values.
T = Trace of Precipitation, MM = Missing Value Source: NWS Daily Summary

Daily Weather History Graph

Daily Weather History Graph

Search for Another Location

Airport or City:

Trip Planner

Search our weather history database for the weather conditions in past years. The results will help you decide how hot, cold, wet, or windy it might be!

Date:

Astronomy

Aug. 09, 2014 Rise Set
Actual Time 5:42 AM MST 7:10 PM MST
Civil Twilight 5:16 AM MST 7:36 PM MST
Nautical Twilight 4:45 AM MST 8:07 PM MST
Astronomical Twilight 4:13 AM MST 8:39 PM MST
Moon 6:16 PM MST (8/9) 4:27 AM MST (8/9)
Length of Visible Light 14h 19m
Length of Day
13h 27m
Waxing Gibbous, 99% of the Moon is Illuminated
Aug 9
Waxing Gibbous
Aug 10
Full
Aug 17
Last Quarter
Aug 25
New
Sep 2
First Quarter

Hourly Weather History & Observations

Time (MST) Temp. Heat Index Dew Point Humidity Pressure Visibility Wind Dir Wind Speed Gust Speed Precip Events Conditions
12:56 AM 71.1 °F - 57.9 °F 63% 29.94 in 10.0 mi Calm Calm - N/A   Clear
1:56 AM 71.1 °F - 57.9 °F 63% 29.93 in 10.0 mi West 6.9 mph - N/A   Clear
2:56 AM 70.0 °F - 57.9 °F 65% 29.93 in 10.0 mi West 5.8 mph - N/A   Clear
3:56 AM 70.0 °F - 57.9 °F 65% 29.94 in 10.0 mi WSW 3.5 mph - N/A   Clear
4:56 AM 68.0 °F - 57.0 °F 68% 29.95 in 10.0 mi West 5.8 mph - N/A   Clear
5:56 AM 66.9 °F - 57.0 °F 70% 29.98 in 10.0 mi West 8.1 mph - N/A   Clear
6:56 AM 73.0 °F - 57.0 °F 57% 29.98 in 10.0 mi WNW 6.9 mph - N/A   Clear
7:56 AM 75.0 °F - 57.9 °F 55% 29.99 in 10.0 mi WNW 6.9 mph - N/A   Clear
8:56 AM 78.1 °F - 57.9 °F 50% 29.99 in 10.0 mi NW 10.4 mph - N/A   Clear
9:56 AM 81.0 °F 81.0 °F 57.0 °F 44% 29.99 in 10.0 mi NW 5.8 mph - N/A   Mostly Cloudy
10:56 AM 82.9 °F 82.1 °F 55.9 °F 39% 29.98 in 10.0 mi Variable 4.6 mph - N/A   Partly Cloudy
11:56 AM 84.9 °F 83.7 °F 55.9 °F 37% 29.96 in 10.0 mi Calm Calm - N/A   Scattered Clouds
12:56 PM 87.1 °F 85.1 °F 54.0 °F 32% 29.95 in 10.0 mi North 5.8 mph - N/A   Clear
1:56 PM 89.1 °F 86.7 °F 53.1 °F 29% 29.92 in 10.0 mi Variable 3.5 mph - N/A   Mostly Cloudy
2:03 PM 91.4 °F 89.1 °F 53.6 °F 28% 30.12 in 10.0 mi Variable 4.6 mph - N/A Thunderstorm Thunderstorm
2:18 PM 86.0 °F - 50.0 °F 29% 30.11 in 10.0 mi NNE 10.4 mph - N/A   Partly Cloudy
2:56 PM 88.0 °F - 51.1 °F 28% 29.88 in 10.0 mi NE 6.9 mph - N/A   Partly Cloudy
3:20 PM 87.8 °F 85.7 °F 53.6 °F 31% 30.08 in 10.0 mi NW 9.2 mph - N/A Thunderstorm Thunderstorm
3:56 PM 86.0 °F 84.2 °F 54.0 °F 33% 29.88 in 10.0 mi WSW 4.6 mph - 0.00 in Rain , Thunderstorm Light Thunderstorms and Rain
4:56 PM 73.9 °F - 61.0 °F 64% 29.92 in 10.0 mi SW 20.7 mph 31.1 mph 0.00 in Rain , Thunderstorm Light Thunderstorms and Rain
5:56 PM 73.9 °F - 59.0 °F 59% 29.90 in 10.0 mi SW 16.1 mph - 0.03 in Thunderstorm Thunderstorm
6:56 PM 66.0 °F - 62.1 °F 87% 30.01 in 6.0 mi SE 25.3 mph 31.1 mph 0.01 in Rain , Thunderstorm Thunderstorms and Rain
7:16 PM 62.6 °F - 60.8 °F 94% 30.17 in 5.0 mi South 25.3 mph 32.2 mph 0.05 in Rain , Thunderstorm Light Thunderstorms and Rain
7:35 PM 62.6 °F - 60.8 °F 94% 30.22 in 2.0 mi South 17.3 mph 21.9 mph 0.19 in Rain , Thunderstorm Heavy Thunderstorms and Rain
7:39 PM 62.6 °F - 59.0 °F 88% 30.22 in 1.5 mi SSW 12.7 mph 21.9 mph 0.24 in Rain , Thunderstorm Heavy Thunderstorms and Rain
7:47 PM 64.4 °F - 57.2 °F 77% 30.22 in 2.0 mi SW 18.4 mph 25.3 mph 0.32 in Rain , Thunderstorm Heavy Thunderstorms and Rain
7:51 PM 64.4 °F - 57.2 °F 77% 30.21 in 3.0 mi SW 19.6 mph 25.3 mph 0.34 in Rain , Thunderstorm Heavy Thunderstorms and Rain
7:56 PM 64.9 °F - 59.0 °F 81% 30.05 in 5.0 mi SW 17.3 mph 25.3 mph 0.35 in Rain , Thunderstorm Thunderstorms and Rain
8:56 PM 64.9 °F - 61.0 °F 87% 30.08 in 5.0 mi Variable 4.6 mph - 0.08 in Rain , Thunderstorm Thunderstorms and Rain
9:22 PM 62.6 °F - 60.8 °F 94% 30.24 in 9.0 mi WSW 11.5 mph - 0.02 in Rain Light Rain
9:56 PM 64.9 °F - 62.1 °F 90% 30.03 in 10.0 mi WSW 12.7 mph - 0.05 in Rain Light Rain
10:56 PM 63.0 °F - 62.1 °F 97% 30.11 in 10.0 mi NNE 6.9 mph - 0.03 in Rain Light Rain
11:56 PM 64.0 °F - 60.1 °F 87% 30.08 in 10.0 mi Calm Calm - 0.00 in Rain Light Rain